Regional Weather Roundup
Issued by NWS Newport/Morehead, NC

Current Version | Previous Version | Graphics & Text | Print | Product List | Glossary On
Versions: 1 2 3 4 5 6 7 8 9 10 11 12 13 14 15 16 17 18 19 20 21 22 23 24 25 26 27 28 29 30 31 32 33 34 35 36 37 38 39 40 41 42 43 44 45 46 47 48 49 50
000 ASUS42 KMHX 022224 RWRMHX WEATHER ROUNDUP FOR EASTERN NORTH CAROLINA NATIONAL WEATHER SERVICE NEWPORT/MOREHEAD CITY NC 500 PM EST MON MAR 02 2015 NOTE: "FAIR" INDICATES FEW OR NO CLOUDS BELOW 12,000 FEET WITH NO SIGNIFICANT WEATHER AND/OR OBSTRUCTIONS TO VISIBILITY NCZ015>017-031-032-045>047-102-103-022300- NORTH COAST CITY SKY/WX TMP DP RH WIND PRES REMARKS EDENTON PTSUNNY 46 37 72 SE9 30.28R ELIZABETH CITY PTSUNNY 44 33 65 NE10 30.28S KITTY HAWK MOCLDY 39 35 83 NE7 30.27S MANTEO PTSUNNY 41 32 70 N13 30.29S $$ NCZ045>047-081-094-103-104-022300- CENTRAL COAST CITY SKY/WX TMP DP RH WIND PRES REMARKS FRISCO SUNNY 43 35 73 N9 30.28R SWANQUARTER N/A 46 N/A N/A NE8G17 30.24S $$ NCZ095-097-098-100-101-022300- SOUTHERN COAST CITY SKY/WX TMP DP RH WIND PRES REMARKS BEAUFORT SUNNY 49 38 65 E13G18 30.25R CEDAR ISLAND N/A 43 N/A N/A N7G21 30.30S JACKSONVILLE NOT AVBL PINEY ISLAND N/A N/A N/A N/A MISG 30.26R WILMINGTON SUNNY 63 48 58 NE8 30.22R $$ NCZ011>013-027>030-043-044-078>080-089-090>093-098-022300- COASTAL PLAIN CITY SKY/WX TMP DP RH WIND PRES REMARKS AHOSKIE PTSUNNY 49 37 63 NE7 30.27R CLINTON MOSUNNY 63 46 53 NE7 30.23R ELIZABETHTOWN MOSUNNY 63 47 56 CALM 30.22S GOLDSBORO MOSUNNY 61 44 54 N10 30.21R GREENVILLE MOSUNNY 55 45 67 E12 30.26R HAVELOCK MOSUNNY 49 39 68 NE12G22 30.27R KENANSVILLE MOSUNNY 61 40 46 N6 30.24R KINSTON MOSUNNY 61 39 44 N9 30.32R NEW BERN MOSUNNY 53 42 66 E9 30.25R RICHLANDS SUNNY 61 41 48 N6 30.23S ROCKY MOUNT MOSUNNY 59 38 45 W7 30.23S WASHINGTON SUNNY 52 42 68 E9 30.26R WHITEVILLE MOSUNNY 62 49 63 CALM 30.21S $$ AMZ130-135-150-152-154-156-158-170-250-252-270-ANZ085-086-088-633-658-670-022300- MARINE OBSERVATIONS STATION/POSITION TIME TEMP WIND PRES WAVE SWELL AIR SEA DIR/SP/G HT/PER HT/PER (UTC) (F) (DEG/KT/KT) (MB) (FT/S) (FT/S) CHESAPEAKE LIGHT 2200 40 360/ 11/ 12 1026.4 64 E VA BEACH 2150 44 53 350/ 21/ 25 1024.1 5/ 5 DUCK 2200 37 35 10/ 8/ 9 1024.7 2 E DUCK 2111 35 N/A 2/ 8 10 NE DUCK 2122 37 N/A 2/ 7 OREGON INLET 2200 40 43 10/ 7/ 9 1025.5 HATTERAS CG 2200 20/ 13/ 15 N/A CAPE LOOKOUT 2200 47 50/ 22/ 27 1024.4 BEAUFORT LAB 2200 48 44 60/ 10/ 18 1023.5 27 SE WRIGHTSVLE NOT AVBL 5 SE WRIGHTSVLE NOT AVBL 225 S CAPE HAT 2150 72 74 290/ 14/ 17 1022.1 5/ 9 5/ 9 41 SE CHARLESTON 2150 61 68 240/ 10/ 14 1022.1 3/ 8 3/ 8 $$

USA.gov is the U.S. government's official web portal to all federal, state and local government web resources and services.